"Pseudo-MPEC" for C03KAF1

Created 2019 Feb 15 22:18:04 UT using Find_Orb

Click here for an explanation of pseudo-MPECs

 
 Astrometry: 
     C03KAF1  C2019 02 12.32989 11 45 40.45 -12 44 37.7    ~2CAI 20.3 GVNEOCP703
     C03KAF1  C2019 02 12.33521 11 45 41.45 -12 44 40.6    ~2CAI 20.6 GVNEOCP703
     C03KAF1  C2019 02 12.34054 11 45 42.56 -12 44 42.0    ~2CAI 20.4 GVNEOCP703
     C03KAF1  C2019 02 12.34586 11 45 43.57 -12 44 44.3    ~2CAI 20.6 GVNEOCP703
     C03KAF1  C2019 02 12.40161 11 45 53.88 -12 45 05.8    ~2CB3 20.5 GVNEOCPI52
     C03KAF1  C2019 02 12.40286 11 45 54.13 -12 45 06.0    ~2CB3       VNEOCPI52
     C03KAF1  C2019 02 12.40411 11 45 54.38 -12 45 06.4    ~2CB3       VNEOCPI52
     C03KAF1  C2019 02 12.40536 11 45 54.59 -12 45 07.4    ~2CB3       VNEOCPI52
     C03KAF1  C2019 02 12.48410 11 46 09.26 -12 45 36.7    ~2CC3 19.9 GVNEOCPI52
     C03KAF1  C2019 02 12.48487 11 46 09.40 -12 45 37.2    ~2CC3 19.8 GVNEOCPI52
     C03KAF1  C2019 02 12.48750 11 46 09.92 -12 45 37.5    ~2CC3 20.1 GVNEOCPI52
     C03KAF1  C2019 02 12.48827 11 46 10.02 -12 45 38.5    ~2CC3 20.1 GVNEOCPI52
     C03KAF1 KC2019 02 123nfA+SlrlbX2_YCjN+1-x[QGo2:id(lXnAstrometryFTSSFKFb*474
     C03KAF1 KC2019 02 12aXy_9*`.=Uw']C:Qin*wn0CWnU%1eq#LOVeB`PW[(9rKSIo!-loq474
     C03KAF1 KC2019 02 12=#i,0/)JiY($;AvAredacted;Ny6O,\x$%KCWV@u3tt*M#/p67tR474
     C03KAF1 KC2019 02 125Vy34X8W5IR06O0eVgtMX1!0CL])O+S+s1D+Fm71]=`H(p5VwmAy474
     C03KAF1 KC2019 02 13ne:Gqg2oLYcjy[*G=7tx^;Qp0dM3mX4dG3LZO6$(q.P4bAb:%$EOL01
     C03KAF1 KC2019 02 13X`;B`bU3v^#gNbq%8%?q]?clickGAN;,VB?=]aWqDv/GwvO_Gld9L01
     C03KAF1 KC2019 02 13]_Miob3,Jj,u5)^65f?\2^v7vay-s\lF%bohu!lf.A!k%7K:WjQiL01
     C03KAF1 KC2019 02 13ea;X-A@VcWU\eherev7V!([p`LG).tdgbCRI9d04+fw!wR7=(NM]L01
     C03KAF1 KC2019 02 13CN0jacmT'#h2CegAq$^yRe]ct6Y/kYSswcd9Wm.56tX!SM@kLMWc734
     C03KAF1 KC2019 02 13):ZW\M8:uO1taf6o91`@^q)NI]wd\XU;57h'+='4Nv;lE.#+N;W2734
     C03KAF1 KC2019 02 13G;forbk,+M8HTLwVl#G-)vd;eDdRBJx?CLGpJKDG[!m^HG?/P;sk734
     C03KAF1 |C2019 02 14A7T][Z_QR/v08w#v$o/Ud]ETd2nyS_-jtg)Ls8(o@GYqG^@09+mm807
     C03KAF1 |C2019 02 14I/m*+w0XilMl3N%^Oc$:Vc-Jmc\c39fwWZ[1ktT]!J*bYCgMP[$x807
     C03KAF1 |C2019 02 14cdbDZMi.'c(Qm.m'explanation+ZT+eicch#$TVRqtn;TA^bIdL807

Station data:
(474) Mount John Observatory, Lake Tekapo  (S43.987388 E170.464960)  New
   Zealand.  Observers A. C. Gilmore, P. M. Kilmartin. Measurer P. M.
   Kilmartin. 1.0-m f/7.7 reflector + CCD.
(703) Catalina Sky Survey  (N32.417006 W110.732640)  US/Arizona.  Observers
   B. M. Africano, E. J. Christensen, G. A. Farneth, D. C. Fuls, A. R. Gibbs,
   A. D. Grauer, H. Groeller, J. A. Johnson, R. A. Kowalski, S. M. Larson, G.
   J. Leonard, R. L. Seaman, F. C. Shelly. 0.68 m Schmidt + 10K CCD.
(734) Farpoint Observatory, Eskridge  (N38.890107 W96.001400)  US/Kansas.
   Observer G. Hug. 0.69-m reflector + CCD.
(807) Cerro Tololo Observatory, La Serena  (S30.169136 W70.805900)  Chile.
   1.5-m Ritchey-Chrétien.
(I52) Steward Observatory, Mt. Lemmon Station  (N32.442547 W110.788920)
   US/Arizona.  Observers B. M. Africano, E. J. Christensen, G. A. Farneth,
   D. C. Fuls, A. R. Gibbs, A. D. Grauer, H. Groeller, J. A. Johnson, R. A.
   Kowalski, S. M. Larson, G. J. Leonard, R. L. Seaman, F. C. Shelly. 1.0-m
   reflector + CCD.
(L01) Višnjan Observatory, Tičan  (N45.290900 E13.749300)  Croatia.
   Observers K. Korlević, E. Pettarin. Measurer E. Pettarin. 1.0-m f/2.9
   reflector + CCD.

Orbital elements:  C03KAF1
   Perihelion 2019 Mar 6.180227 +/- 0.344 TT =  4:19:31 (JD 2458548.680227)
Epoch 2019 Feb 14.0 TT = JDT 2458528.5   Earth MOID: 0.2161   Ju: 0.7119
M 355.62473499 +/- 0.13             (J2000 ecliptic)          AutoNEOCP
n   0.21680950 +/- 0.00456          Peri.  350.70998 +/- 0.41
a   2.74420891 +/- 0.0386           Node   180.82604 +/- 0.11
e   0.5592275 +/- 0.00557           Incl.    6.61676 +/- 0.041
P   4.55                   H 21.0   G  0.15   U  9.1  
q 1.20957178 +/- 0.00174    Q 4.27884604 +/- 0.0767
From 26 observations 2019 Feb. 12-14 (44.8 hr); mean residual 0".42
Residuals in arcseconds: 
190212 703  1.5-  .26-    190212 I52  .16+  .09-    190213 L01  .16-  .20+    
190212 703  1.4-  1.0-    190212 I52  .56+  .57+    190213 L01  .08+  .27+    
190212 703  .33+  .27-    190212 I52  .08-  .15-    190213 734  .04+  .31-    
190212 703  .61+  .43-    190212 474  .26+  .25+    190213 734  .24-  .13+    
190212 I52  .16-  .00     190212 474  .68+  .48+    190213 734  .52-  .07-    
190212 I52  .10+  .29+    190212 474  .36+  .30+    190214 807  .08-  .30-    
190212 I52  .37+  .37+    190212 474  .63+  .12+    190214 807  .13+  .15-    
190212 I52  .04+  .15-    190213 L01  .11-  .09+    190214 807  .12+  .16+    
190212 I52  .22+  .13+    190213 L01  .00   .25+    

Ephemerides (geocentric):
Date (UTC) HH   RA              Dec         delta   r     elong  mag " sig PA
---- -- -- --  -------------   -----------  ------ ------ -----  --- ---- ---
2019 02 15 22  11 57 33.216   -13 02 59.12  .29367 1.2282 140.3 20.1 .368 122
2019 02 15 23  11 57 41.619   -13 03 08.85  .29353 1.2281 140.3 20.1 .377 122
2019 02 16 00  11 57 50.026   -13 03 18.49  .29338 1.2280 140.4 20.1 .387 123
2019 02 16 01  11 57 58.434   -13 03 28.06  .29324 1.2280 140.4 20.1 .398 123
2019 02 16 02  11 58 06.845   -13 03 37.55  .29310 1.2279 140.4 20.1 .408 123
2019 02 16 03  11 58 15.259   -13 03 46.96  .29296 1.2278 140.4 20.1 .418 124
2019 02 16 04  11 58 23.675   -13 03 56.29  .29282 1.2277 140.4 20.1 .429 124
2019 02 16 05  11 58 32.093   -13 04 05.54  .29268 1.2276 140.4 20.1 .440 125
2019 02 16 06  11 58 40.514   -13 04 14.71  .29254 1.2275 140.4 20.1 .451 125
2019 02 16 07  11 58 48.937   -13 04 23.81  .29240 1.2275 140.4 20.1 .462 125
2019 02 16 08  11 58 57.363   -13 04 32.83  .29225 1.2274 140.5 20.1 .473 126
2019 02 16 09  11 59 05.791   -13 04 41.77  .29211 1.2273 140.5 20.1 .485 126
2019 02 16 10  11 59 14.221   -13 04 50.62  .29197 1.2272 140.5 20.1 .497 126
2019 02 16 11  11 59 22.654   -13 04 59.40  .29183 1.2271 140.5 20.1 .508 127
2019 02 16 12  11 59 31.089   -13 05 08.11  .29170 1.2270 140.5 20.1 .520 127
2019 02 16 13  11 59 39.526   -13 05 16.73  .29156 1.2270 140.5 20.1 .533 127
2019 02 16 14  11 59 47.966   -13 05 25.27  .29142 1.2269 140.5 20.1 .545 127
2019 02 16 15  11 59 56.408   -13 05 33.73  .29128 1.2268 140.5 20.1 .558 128
2019 02 16 16  12 00 04.852   -13 05 42.12  .29114 1.2267 140.5 20.1 .570 128
2019 02 16 17  12 00 13.299   -13 05 50.42  .29100 1.2266 140.6 20.1 .583 128
2019 02 16 18  12 00 21.748   -13 05 58.65  .29086 1.2266 140.6 20.1 .596 129
2019 02 16 19  12 00 30.199   -13 06 06.79  .29072 1.2265 140.6 20.1 .609 129
2019 02 16 20  12 00 38.653   -13 06 14.86  .29059 1.2264 140.6 20.1 .623 129
2019 02 16 21  12 00 47.109   -13 06 22.85  .29045 1.2263 140.6 20.1 .636 129
2019 02 16 22  12 00 55.567   -13 06 30.75  .29031 1.2262 140.6 20.1 .650 130
2019 02 16 23  12 01 04.027   -13 06 38.58  .29017 1.2262 140.6 20.1 .664 130
2019 02 17 00  12 01 12.490   -13 06 46.32  .29004 1.2261 140.6 20.1 .678 130
2019 02 17 01  12 01 20.955   -13 06 53.99  .28990 1.2260 140.6 20.1 .692 130
2019 02 17 02  12 01 29.422   -13 07 01.58  .28976 1.2259 140.7 20.1 .707 131
2019 02 17 03  12 01 37.891   -13 07 09.08  .28963 1.2258 140.7 20.1 .722 131
2019 02 17 04  12 01 46.362   -13 07 16.51  .28949 1.2258 140.7 20.1 .736 131
2019 02 17 05  12 01 54.836   -13 07 23.85  .28936 1.2257 140.7 20.1 .751 131
2019 02 17 06  12 02 03.312   -13 07 31.12  .28922 1.2256 140.7 20.1 .766 132
2019 02 17 07  12 02 11.790   -13 07 38.30  .28908 1.2255 140.7 20.1 .782 132
2019 02 17 08  12 02 20.270   -13 07 45.41  .28895 1.2255 140.7 20.1 .797 132
2019 02 17 09  12 02 28.753   -13 07 52.43  .28881 1.2254 140.7 20.1 .813 132
2019 02 17 10  12 02 37.237   -13 07 59.38  .28868 1.2253 140.8 20.1 .829 132
2019 02 17 11  12 02 45.724   -13 08 06.24  .28854 1.2252 140.8 20.1 .845 133
2019 02 17 12  12 02 54.213   -13 08 13.02  .28841 1.2251 140.8 20.1 .861 133
2019 02 17 13  12 03 02.704   -13 08 19.72  .28828 1.2251 140.8 20.1 .877 133
2019 02 17 14  12 03 11.197   -13 08 26.34  .28814 1.2250 140.8 20.1 .894 133
2019 02 17 15  12 03 19.692   -13 08 32.88  .28801 1.2249 140.8 20.1 .911 133
2019 02 17 16  12 03 28.189   -13 08 39.34  .28788 1.2248 140.8 20.1 .928 134
2019 02 17 17  12 03 36.689   -13 08 45.71  .28774 1.2248 140.8 20.1 .945 134
2019 02 17 18  12 03 45.190   -13 08 52.01  .28761 1.2247 140.8 20.1 .962 134
2019 02 17 19  12 03 53.694   -13 08 58.22  .28748 1.2246 140.9 20.1 .979 134
2019 02 17 20  12 04 02.199   -13 09 04.36  .28734 1.2245 140.9 20.1 1.00 134
2019 02 17 21  12 04 10.707   -13 09 10.41  .28721 1.2245 140.9 20.1 1.01 135